www.pogodaiklimat.ru

Погода и климат >> Архив погоды >> Саудовская Аравия >> Гизан


ПОГОДА в Гизане

  • Прогноз погоды в Гизане
  • Монитор погоды в Гизане

АРХИВ ПОГОДЫ в Гизане

Время (UTC), дата Ветер
(напр.,м/с)
 
Видим.   Явления Облачность Т
(С)
Тd
(С)
f
(%)
Тe
(С)
Тes
(С)
Комфортность P
(гПа)
Po
(гПа)
Тmin
(С)
Tmax
(С)
R
(мм)
R24
(мм)
S
(см)
00 9.09 штиль 0 10 км 4/0
[Ac trans]
+29.2 +23.0 69 +39 +39 очень
душно
1003.2 1002.1
03 9.09 СЗ 2 9000 м мгла 5/5 900 м
[Sc diur, vesp]
+29.6 +24.0 72 +41 +41 опасность
перегрева
1003.2 1002.8
06 9.09 ЮЗ 2 10 км ясно +34.2 +26.0 62 +50 +60 опасность
перегрева
1006.2 1005.9 +27.4
09 9.09 ЮВ 5 10 км 4/3 900 м
[Cu hum Ac trans]
+35.4 +27.0 62 +53 +60 опасность
перегрева
1006.2 1005.0
12 9.09 ЮЗ 6 10 км 4/1 900 м
[Cu hum Ac trans]
+36.0 +26.0 57 +52 +55 опасность
перегрева
1004.2 1003.6
15 9.09 ЮЗ 6 10 км 8/3 900 м
[Cu hum Ac trans]
+34.9 +25.0 57 +49 +49 опасность
перегрева
1004.2 1003.8
18 9.09 З 5 10 км 4/0
[Ac trans]
+33.5 +26.0 65 +49 +49 опасность
перегрева
1006.2 1005.3 +37.7
21 9.09 Ю 3 10 км 5/3 900 м
[Sc diur, vesp Ac trans]
+33.2 +27.0 70 +51 +51 опасность
перегрева
1005.2 1004.7
00 10.09 З 2 10 км 3/0
[Ac trans]
+32.4 +28.0 78 +53 +53 опасность
перегрева
1005.2 1004.1
03 10.09 С 2 9000 м мгла 1/0
[Ac trans]
+31.0 +27.0 79 +48 +48 опасность
перегрева
1005.2 1004.9
06 10.09 штиль 0 10 км ясно +36.7 +27.0 58 +55 +68 опасность
перегрева
1007.2 1006.3 +30.0
09 10.09 ЮЗ 5 10 км 1/1 900 м
[Cu hum]
+37.1 +27.0 56 +54 +64 опасность
перегрева
1006.2 1005.3 150
12 10.09 З 7 10 км 6/3 900 м
[Cu hum Ac trans]
+36.1 +27.0 60 +54 +56 опасность
перегрева
1004.2 1003.6
15 10.09 З 6 10 км 5/3 900 м
[Cu hum Ac trans]
+34.0 +26.0 63 +50 +50 опасность
перегрева
1005.2 1004.1
18 10.09 СЗ 5 9000 м пыль 3/0
[Ac trans]
+34.6 +24.0 54 +46 +46 опасность
перегрева
1006.2 1005.4 +39.1
21 10.09 В 4 10 км 6/1 900 м
[Sc diur, vesp Ac trans]
+34.9 +23.0 50 +45 +45 опасность
перегрева
1005.2 1004.5
00 11.09 В 4 9000 м пыль 3/0
[Ac trans]
+33.7 +22.0 50 +42 +42 опасность
перегрева
1004.2 1003.0
03 11.09 ЮВ 3 10 км 3/0
[Ac trans]
+33.0 +24.0 59 +45 +45 опасность
перегрева
1004.2 1003.8
06 11.09 ЮЗ 3 7000 м мгла 1/1 900 м
[Sc diur, vesp]
+35.6 +26.0 58 +51 +59 опасность
перегрева
1006.2 1005.0 +31.6
09 11.09 З 5 9000 м пыль ясно +37.7 +25.0 49 +51 +62 опасность
перегрева
1005.2 1004.4
12 11.09 З 7 10 км 4/1 1050 м
[Cu med, cong Ac trans]
+37.1 +27.0 56 +54 +57 опасность
перегрева
1003.2 1002.5
15 11.09 З 5 9000 м пыль 8/3 1050 м
[Sc diur, vesp As op]
+35.1 +25.0 56 +49 +49 опасность
перегрева
1003.2 1002.5
18 11.09 З 3-6
{15}
10 км 5/1 1050 м
[Sc diur, vesp Ac trans]
+34.7 +24.0 54 +46 +46 опасность
перегрева
1005.2 1004.5 +38.7
21 11.09 Ю 3 10 км 3/0
[Ac trans]
+34.7 +24.0 54 +46 +46 опасность
перегрева
1006.2 1005.0
00 12.09 ЮВ 4 10 км ясно +33.2 +25.0 62 +47 +47 опасность
перегрева
1004.2 1003.8
03 12.09 ЮВ 4 10 км ясно +32.0 +26.0 71 +48 +48 опасность
перегрева
1005.2 1004.5
06 12.09 ЮЗ 3 10 км ясно +34.6 +27.0 65 +53 +61 опасность
перегрева
1007.2 1006.3 +31.0
09 12.09 ЮЗ 3 10 км ясно +36.8 +26.0 54 +52 +71 опасность
перегрева
1006.2 1005.3
12 12.09 З 7 10 км 1/1 900 м
[Cu hum]
+35.2 +27.0 63 +53 +56 опасность
перегрева
1004.2 1003.1
15 12.09 З 6 10 км 3/1 <50 м
[Sc diur, vesp Ac trans]
+33.0 +26.0 67 +49 +49 опасность
перегрева
1004.2 1003.1
18 12.09 З 3 7000 м мгла ясно +32.4 +27.0 73 +50 +50 опасность
перегрева
1005.2 1004.0 +37.8
21 12.09 СВ 2 8000 м мгла ясно +32.1 +27.0 75 +50 +50 опасность
перегрева
1005.2 1004.3
00 13.09 Ю 2 7000 м мгла ясно +31.9 +28.0 80 +52 +52 опасность
перегрева
1004.2 1003.1
03 13.09 Ю 2 8000 м дымка 5/5 900 м
[Sc diur, vesp]
+31.4 +28.0 82 +52 +52 опасность
перегрева
1005.2 1004.7
06 13.09 ЮЗ 3 10 км 6/4 900 м
[Sc diur, vesp Ac trans]
+33.2 +28.0 74 +54 +58 опасность
перегрева
1008.2 1007.2 +30.4
09 13.09 Ю 5 10 км 3/3 900 м
[Cu hum]
+35.8 +28.0 64 +56 +64 опасность
перегрева
1006.2 1005.8
12 13.09 10 км н/о +37.5 +25.0 49 +51 +54 опасность
перегрева
1004.2 1003.7
15 13.09 ЮВ 4 5000 м гроза, пыльная буря 9/5 900 м
[Cb cap As trans]
+31.3 +23.0 61 +41 +41 опасность
перегрева
1006.2 1005.1
18 13.09 В 3 10 км 6/1 900 м
[Sc diur, vesp Ac trans]
+29.6 +22.0 64 +38 +38 очень
душно
1006.2 1005.6 +38.5
21 13.09 штиль 0 10 км 4/1 900 м
[Sc diur, vesp Ac trans Ci fib]
+30.2 +21.0 58 +38 +38 очень
душно
1006.2 1005.0
00 14.09 В 2 10 км 4/1 900 м
[Sc diur, vesp Ac trans]
+29.6 +21.0 60 +37 +37 очень
душно
1005.2 1004.4
03 14.09 СВ 3 10 км 9/3 900 м
[Sc diur, vesp Ac trans]
+29.0 +22.0 66 +37 +37 очень
душно
1006.2 1005.4
06 14.09 штиль 0 10 км 1/1 900 м
[Cu hum]
+34.6 +24.0 54 +46 +58 опасность
перегрева
1008.2 1007.1 +27.4
09 14.09 З 6 10 км ясно +38.2 +24.0 44 +49 +57 опасность
перегрева
1006.2 1005.1
12 14.09 З 6 10 км 3/3 900 м
[Cu hum]
+36.4 +27.0 59 +54 +57 опасность
перегрева
1004.2 1003.7
15 14.09 З 4 10 км 4/1 900 м
[Sc diur, vesp Ac trans]
+34.6 +25.0 58 +48 +48 опасность
перегрева
1005.2 1004.0
18 14.09 З 2 10 км ясно +33.4 +25.0 62 +47 +47 опасность
перегрева
1006.2 1005.3 +39.3
21 14.09 ЮЗ 2 10 км ясно +32.9 +26.0 67 +49 +49 опасность
перегрева
1006.2 1005.3 270
00 15.09 штиль 0 10 км ясно +32.3 +27.0 74 +50 +50 опасность
перегрева
1005.2 1004.0
03 15.09 штиль 0 10 км ясно +30.2 +25.0 74 +44 +44 опасность
перегрева
1005.2 1004.9
06 15.09 штиль 0 10 км ясно +34.7 +27.0 64 +52 +65 опасность
перегрева
1007.2 1006.6 +29.2
09 15.09 ЮЗ 5 10 км ясно +36.9 +26.0 54 +52 +63 опасность
перегрева
1006.2 1005.3
12 15.09 З 9 10 км 3/1 900 м
[Cu hum Ac trans]
+35.6 +28.0 65 +56 +57 опасность
перегрева
1004.2 1003.1
15 15.09 З 5 10 км 8/1 900 м
[Cu hum Ac trans]
+34.1 +27.0 67 +52 +52 опасность
перегрева
1005.2 1004.6
18 15.09 З 3 10 км 5/1 900 м
[Cu med, cong Ac trans]
+33.2 +26.0 66 +49 +49 опасность
перегрева
1005.2 1004.9 +38.0
21 15.09 ЮВ 3 10 км 1/1 900 м
[Cu hum]
+32.2 +25.0 66 +46 +46 опасность
перегрева
1006.2 1005.8

 

Местоположение метеостанции Гизан (Саудовская Аравия): широта 16.88 долгота 42.58 высота над уровнем моря 7 м.

В архиве по умолчанию представлена погода в Гизане за последнюю неделю. Архивные данные за месяц целиком и за предыдущие месяцы, начиная с января 2011 года, Вы можете получить, выбрав интересующий диапазон дат из раскрывающегося списка и нажав кнопку "Ввод!".


*Определитесь, кто Вы:
робот инопланетянин человек

Внимание! Время в таблицах - всемирное. Для получения местного времени необходимо прибавить поправку, которая равна 3 ч.

Смотрите также архив погоды в соседних городах и на ближайших метеорологических станциях:

Погода в Абхе (Саудовская Аравия) (150 км)
Погода в Хадже (Йемен) (158 км)
Погода в Хамис-Мушайте (Саудовская Аравия) (160 км)
Погода в Найране (Саудовская Аравия) (212 км)
Погода в Сане (Йемен) (228 км)
Погода в Ходейде (Йемен) (241 км)
Погода в Дамаре (Йемен) (323 км)
Погода в Марибе (Йемен) (335 км)
Погода в Бише (Саудовская Аравия) (345 км)
Погода в Аль-Бахе (Саудовская Аравия) (393 км)

Пояснения к столбцам:

Ветер - указаны скорость ветра в м/с - средняя за 10 мин, порывы в срок и между сроками (в фигурных скобках) и направление, откуда дует ветер: С - северный, СВ - северо-восточный, В - восточный, ЮВ - юго-восточный, Ю - южный, ЮЗ - юго-западный, З - западный, СЗ - северо-западный.
Видимость - горизонтальная дальность видимости в метрах или километрах. При видимости от 1 до 10 км при отсутствии осадков обычно наблюдается дымка, при ухудшении видимости до 1 км и менее - туман. В сухую погоду видимость может ухудшаться дымом, пылью или мглою.
Явления - указаны атмосферные явления, наблюдавшиеся в срок или в последний час перед сроком; фигурными скобками обозначены явления, наблюдавшиеся между сроками (за 1-3 часа до срока); квадратными скобками обозначены град или гололедные отложения с указанием их диаметра в мм.
Облачность - указаны через наклонную черту общая и нижняя облачность в баллах и высота нижней границы облаков в метрах; квадратными скобками обозначены формы облаков: Ci - перистые, Cs - перисто-слоистые, Cc - перисто-кучевые, Ac - высококучевые, As - высокослоистые, Sc - слоисто-кучевые, Ns - слоисто-дождевые, Cu - кучевые, Cb - кучево-дождевые. Подробнее классификацию облаков см. в Атласе облаков (PDF).
T - Температура воздуха - температура, измеренная на высоте 2 м над землей.
Td - Температура точки росы - температура, при понижении до которой содержащийся в воздухе водяной пар достигнет насыщения.
f - Относительная влажность воздуха - влажноcть воздуха, измеренная на высоте 2 м над землей.
Te - Эффективная температура - температура, которую ощущает одетый по сезону человек в тени. Характеристика душности погоды. При расчете учитывается влияние влажности воздуха и скорости ветра на теплоощущения человека.
Tes - Эффективная температура на солнце - температура, которую ощущает человек, с поправкой на солнечный нагрев. Характеристика знойности погоды. Зависит от высоты солнца над горизонтом, облачности и скорости ветра. Ночью, в пасмурную погоду, а также при ветре 12 м/с и более поправка равна нулю.
P - Атмосферное давление - приведенное к уровню моря атмосферное давление.
Po - Атмосферное давление - измеренное на уровне метеостанции атмосферное давление.
Tmin - Минимальная температура - минимум температуры воздуха на высоте 2 м над землей.
Tmax - Максимальная температура - максимум температуры воздуха на высоте 2 м над землей.
R - Количество осадков - Количество выпавших осадков за период времени, мм. При наведении курсора мыши на число - период времени, за который выпало указанное количество осадков.
R24 - Количество осадков - Количество выпавших осадков за 24 часа, мм.
S - Снежный покров - Высота снежного покрова, см. При наведении курсора мыши на число - состояние снежного покрова и степень покрытия местности в баллах.